216P/LINEAR (2024)

Japanese version
Home page
Updated on June 5, 2024

---------------------------------------------------------------------

* Profile

* Pictures

* Orbital Elements

Epoch 2024 Mar. 31.0 TT = JDT 2460400.5
T 2024 Jan. 6.87634 TT                                  Rudenko
q   2.1270746            (2000.0)            P               Q
n   0.13005059     Peri.  151.73376     -0.87910847     -0.47662143
a   3.8582868      Node   359.79875     +0.40222988     -0.74127257
e   0.4486997      Incl.    9.06300     +0.25569399     -0.47259601
P   7.58
>From 277 observations 2001 Feb. 1-2024 Feb. 20, mean residual 0".8.

* Magnitudes Graph

        m1 = 7.0 + 5 log d + 30 log r(t - 20)

---------------------------------------------------------------------

The orbital elements are published on M.P.E.C. 2024-D126.
The magnitudes graphs are made with Comet for Windows.

---------------------------------------------------------------------

Copyright(C) Seiichi Yoshida (comet@aerith.net). All rights reserved.